Lid_Strength_Index
3 2 1 1 1 1 1 0 0 -0 0 2 3 3 4 4 4 3 3 3 3 3 4 4 4 5 6 6 5 5 6 6
3 2 2 1 1 1 1 1 1 1 3 5 6 6 6 5 5 4 4 4 4 4 5 5 6 6 6 5 6 6 7 7
4 3 2 2 2 2 1 1 2 2 2 4 5 5 6 6 6 6 5 5 5 4 5 5 6 7 6 5 5 6 6 6
5 4 3 2 2 2 2 2 3 2 3 6 7 7 7 7 7 7 6 6 5 5 5 5 6 6 6 5 5 4 6 6
4 4 4 3 2 1 1 1 2 3 5 5 6 5 5 5 6 7 6 6 6 6 6 6 6 6 6 5 5 4 5 6
5 4 3 3 2 2 2 2 3 4 5 4 4 4 4 6 7 7 7 6 7 6 6 6 6 6 5 5 5 5 5 5
4 3 3 3 2 3 3 3 3 4 5 5 4 5 6 8 8 8 8 8 8 7 6 6 6 6 5 5 5 5 5 6
4 4 4 3 3 3 4 4 4 4 5 5 4 5 6 7 8 9 10 10 8 8 6 7 7 7 7 6 7 7 7 7
4 4 3 3 3 3 4 5 4 4 5 5 5 6 6 7 8 8 8 8 8 7 7 7 7 7 8 7 7 8 8 9
5 4 3 3 3 3 3 3 3 5 4 5 6 6 7 8 8 9 9 8 7 6 7 6 7 8 8 8 9 9 9 10
10 9 3 3 2 2 2 2 3 4 5 5 5 6 7 8 9 9 8 8 7 7 7 7 8 8 9 9 9 9 10 10
7 6 7 3 2 2 3 4 4 5 5 6 6 7 7 8 9 9 8 8 7 7 6 8 8 9 9 9 10 10 11 11
8 6 3 3 3 2 3 4 5 6 5 6 7 8 8 9 9 9 8 8 7 7 7 8 9 9 9 10 11 11 12 12
8 8 7 4 3 3 3 3 4 5 6 7 8 8 8 9 9 9 8 8 8 7 8 9 9 9 10 10 11 11 12 12
9 9 8 8 5 3 3 3 3 4 6 7 8 8 8 8 9 9 8 8 8 8 8 9 9 9 9 10 11 11 12 12
10 10 9 8 8 6 4 3 3 4 5 7 8 8 8 9 9 9 8 8 8 8 8 8 9 9 10 10 11 11 12 12
10 10 9 9 8 8 8 4 3 3 5 6 7 8 9 9 9 9 8 7 8 8 8 8 8 9 12 12 11 11 12 12
11 10 9 8 8 8 8 8 4 4 4 6 8 9 10 10 9 9 8 8 8 8 8 8 8 8 12 12 12 10 11 12
11 10 9 8 7 7 7 6 5 5 4 5 8 9 10 10 9 8 9 9 9 9 9 9 9 9 12 12 13 10 11 12